TimeEST,TemperatureF,Dew PointF,Humidity,Sea Level PressureIn,VisibilityMPH,Wind Direction,Wind SpeedMPH,Gust SpeedMPH,PrecipitationIn,Events,Conditions,WindDirDegrees,DateUTC
12:56 AM,21.9,18.0,85,30.04,2.0,Calm,Calm,-,0.00,Snow,Light Snow,0,2013-02-03 05:56:00
1:56 AM,21.9,18.0,85,30.02,2.0,Calm,Calm,-,0.01,Snow,Light Snow,0,2013-02-03 06:56:00
2:56 AM,21.2,19.4,93,29.96,2.0,Calm,Calm,-,N/A,Snow,Light Snow,0,2013-02-03 07:56:00
3:56 AM,21.9,18.0,85,29.97,5.0,Calm,Calm,-,0.00,Snow,Light Snow,0,2013-02-03 08:56:00
4:56 AM,19.0,16.0,88,29.96,6.0,NE,3.5,-,0.00,,Scattered Clouds,40,2013-02-03 09:56:00
5:56 AM,19.4,15.8,86,29.91,8.0,North,4.6,-,N/A,,Clear,10,2013-02-03 10:56:00
6:56 AM,17.1,12.9,84,29.96,7.0,NE,3.5,-,N/A,,Clear,50,2013-02-03 11:56:00
7:56 AM,19.9,16.0,85,29.98,6.0,NE,4.6,-,N/A,,Clear,50,2013-02-03 12:56:00
8:56 AM,21.0,16.0,81,29.96,8.0,ENE,4.6,-,N/A,,Clear,60,2013-02-03 13:56:00
9:56 AM,25.0,15.1,66,29.94,10.0,ENE,3.5,-,N/A,,Clear,70,2013-02-03 14:56:00
10:56 AM,27.0,14.0,58,29.92,10.0,Calm,Calm,-,N/A,,Scattered Clouds,0,2013-02-03 15:56:00
11:56 AM,27.0,12.9,56,29.88,10.0,Calm,Calm,-,N/A,,Scattered Clouds,0,2013-02-03 16:56:00
12:56 PM,28.0,12.9,53,29.84,10.0,Calm,Calm,-,N/A,,Scattered Clouds,0,2013-02-03 17:56:00
1:56 PM,28.0,16.0,61,29.81,10.0,NW,5.8,-,N/A,,Partly Cloudy,310,2013-02-03 18:56:00
2:56 PM,28.9,15.1,56,29.81,10.0,WNW,6.9,-,N/A,,Clear,290,2013-02-03 19:56:00
3:56 PM,28.9,14.0,54,29.80,10.0,WNW,10.4,-,N/A,,Scattered Clouds,300,2013-02-03 20:56:00
4:56 PM,27.0,12.9,56,29.80,10.0,WNW,9.2,-,N/A,,Scattered Clouds,290,2013-02-03 21:56:00
5:56 PM,26.1,15.1,63,29.80,10.0,NW,9.2,-,N/A,,Partly Cloudy,310,2013-02-03 22:56:00
6:56 PM,25.0,14.0,63,29.81,10.0,West,5.8,-,N/A,,Scattered Clouds,270,2013-02-03 23:56:00
7:56 PM,25.0,14.0,63,29.81,10.0,West,3.5,-,N/A,,Clear,270,2013-02-04 00:56:00
8:56 PM,23.0,14.0,68,29.82,10.0,West,3.5,-,N/A,,Clear,280,2013-02-04 01:56:00
9:56 PM,21.9,14.0,72,29.81,10.0,Calm,Calm,-,N/A,,Clear,0,2013-02-04 02:56:00
10:56 PM,23.0,15.1,72,29.81,9.0,WSW,3.5,-,N/A,,Overcast,250,2013-02-04 03:56:00
11:56 PM,25.0,16.0,69,29.80,8.0,West,4.6,-,0.00,,Overcast,270,2013-02-04 04:56:00